TimeCST,TemperatureF,Dew PointF,Humidity,Sea Level PressureIn,VisibilityMPH,Wind Direction,Wind SpeedMPH,Gust SpeedMPH,PrecipitationIn,Events,Conditions,WindDirDegrees,DateUTC
12:18 AM,32.0,30.9,96,29.89,2.5,SE,5.8,-,0.01,Snow,Light Snow,140,2013-12-14 06:18:00
12:27 AM,32.0,32.0,100,29.89,3.0,SSE,5.8,-,0.01,Snow,Light Snow,150,2013-12-14 06:27:00
12:54 AM,32.0,30.9,96,29.88,4.0,SE,5.8,-,0.02,,Overcast,130,2013-12-14 06:54:00
1:54 AM,33.1,30.9,92,29.88,3.0,East,3.5,-,0.00,Snow,Light Snow,80,2013-12-14 07:54:00
2:01 AM,32.0,32.0,100,29.86,2.0,ESE,3.5,-,0.01,Snow,Light Snow,110,2013-12-14 08:01:00
2:48 AM,33.8,32.0,93,29.86,3.0,NE,3.5,-,0.04,Snow,Light Snow,40,2013-12-14 08:48:00
2:54 AM,33.1,32.0,96,29.88,3.0,Calm,Calm,-,0.04,Snow,Light Snow,0,2013-12-14 08:54:00
3:03 AM,33.1,32.0,96,29.87,2.5,ESE,3.5,-,0.00,Snow,Light Snow,110,2013-12-14 09:03:00
3:14 AM,32.0,32.0,100,29.87,1.5,ESE,3.5,-,0.00,Snow,Light Snow,110,2013-12-14 09:14:00
3:45 AM,33.1,30.9,92,29.86,1.2,NNE,3.5,-,0.01,Snow,Light Snow,20,2013-12-14 09:45:00
3:54 AM,32.0,30.9,96,29.87,1.2,NNE,4.6,-,0.01,Snow,Light Snow,20,2013-12-14 09:54:00
4:14 AM,32.0,30.9,96,29.85,1.8,North,4.6,-,0.01,Snow,Light Snow,10,2013-12-14 10:14:00
4:24 AM,32.0,30.9,96,29.84,2.0,North,6.9,-,0.02,Snow,Light Snow,360,2013-12-14 10:24:00
4:54 AM,32.0,30.9,96,29.87,1.5,North,6.9,-,0.03,Snow,Light Snow,350,2013-12-14 10:54:00
5:18 AM,32.0,30.9,96,29.86,2.5,NNW,5.8,-,0.01,Snow,Light Snow,340,2013-12-14 11:18:00
5:26 AM,32.0,30.9,96,29.86,3.0,North,6.9,-,0.01,Snow,Light Snow,350,2013-12-14 11:26:00
5:54 AM,32.0,30.9,96,29.89,3.0,NNW,5.8,-,0.01,Snow,Light Snow,340,2013-12-14 11:54:00
6:39 AM,32.0,30.9,96,29.89,2.0,NNW,9.2,-,0.00,Snow,Light Snow,340,2013-12-14 12:39:00
6:54 AM,32.0,30.9,96,29.92,1.8,NNW,11.5,-,0.00,Snow,Light Snow,330,2013-12-14 12:54:00
7:08 AM,32.0,30.9,96,29.90,2.0,NNW,11.5,-,0.00,Snow,Light Snow,330,2013-12-14 13:08:00
7:33 AM,32.0,30.9,96,29.91,3.0,NNW,12.7,-,0.01,Snow,Light Snow,330,2013-12-14 13:33:00
7:43 AM,32.0,30.9,96,29.91,2.5,NNW,12.7,-,0.01,Snow,Light Snow,340,2013-12-14 13:43:00
7:54 AM,32.0,30.9,96,29.94,2.5,NNW,15.0,-,0.01,Snow,Light Snow,340,2013-12-14 13:54:00
7:57 AM,32.0,30.9,96,29.92,3.0,NNW,13.8,-,0.00,Snow,Light Snow,340,2013-12-14 13:57:00
8:54 AM,30.9,28.0,89,29.98,5.0,North,15.0,-,0.00,,Overcast,350,2013-12-14 14:54:00
9:54 AM,30.0,27.0,88,30.02,4.0,NNW,18.4,-,N/A,,Overcast,330,2013-12-14 15:54:00
10:54 AM,28.9,25.0,85,30.03,5.0,NNW,16.1,-,N/A,,Overcast,340,2013-12-14 16:54:00
11:54 AM,28.0,26.1,92,30.03,4.0,NNW,17.3,-,N/A,,Overcast,330,2013-12-14 17:54:00
12:54 PM,27.0,25.0,92,30.03,3.0,NW,16.1,-,N/A,,Overcast,320,2013-12-14 18:54:00
1:05 PM,27.0,25.0,92,30.01,2.5,NW,18.4,-,N/A,,Overcast,320,2013-12-14 19:05:00
1:12 PM,27.0,25.0,92,30.00,3.0,NNW,17.3,-,N/A,,Overcast,330,2013-12-14 19:12:00
1:26 PM,27.0,24.1,89,30.00,2.5,NNW,20.7,27.6,N/A,,Overcast,330,2013-12-14 19:26:00
1:34 PM,27.0,25.0,92,30.00,3.0,NNW,18.4,-,N/A,,Overcast,330,2013-12-14 19:34:00
1:47 PM,27.0,25.0,92,30.01,2.5,NW,19.6,-,N/A,,Overcast,320,2013-12-14 19:47:00
1:54 PM,27.0,24.1,89,30.04,3.0,NW,17.3,-,N/A,,Overcast,320,2013-12-14 19:54:00
2:54 PM,27.0,24.1,89,30.07,4.0,NW,15.0,-,N/A,,Overcast,320,2013-12-14 20:54:00
3:54 PM,26.1,24.1,92,30.10,4.0,NW,13.8,-,N/A,,Overcast,310,2013-12-14 21:54:00
4:54 PM,26.1,24.1,92,30.14,4.0,NW,11.5,-,N/A,,Overcast,310,2013-12-14 22:54:00
5:54 PM,26.1,23.0,88,30.16,5.0,WNW,10.4,-,N/A,,Overcast,300,2013-12-14 23:54:00
6:54 PM,26.1,23.0,88,30.17,5.0,NW,12.7,-,N/A,,Overcast,310,2013-12-15 00:54:00
7:52 PM,26.6,21.2,80,30.17,6.0,NW,12.7,-,N/A,,Overcast,310,2013-12-15 01:52:00
7:54 PM,26.1,21.9,84,30.19,6.0,NW,10.4,-,N/A,,Overcast,310,2013-12-15 01:54:00
8:54 PM,25.0,21.0,85,30.20,8.0,NW,11.5,-,N/A,,Overcast,310,2013-12-15 02:54:00
9:30 PM,25.0,21.0,85,30.18,8.0,NW,11.5,-,N/A,,Overcast,320,2013-12-15 03:30:00
9:54 PM,25.0,21.0,85,30.21,8.0,WNW,9.2,-,N/A,,Overcast,300,2013-12-15 03:54:00
10:44 PM,25.0,21.0,85,30.18,8.0,WNW,13.8,-,N/A,,Overcast,300,2013-12-15 04:44:00
10:54 PM,25.0,19.9,81,30.21,8.0,WNW,12.7,-,N/A,,Overcast,300,2013-12-15 04:54:00
11:43 PM,24.1,19.0,81,30.19,8.0,WNW,9.2,-,N/A,,Overcast,300,2013-12-15 05:43:00
11:54 PM,24.1,19.0,81,30.22,8.0,NW,9.2,-,N/A,,Overcast,310,2013-12-15 05:54:00